AO-71
1 37854U 11061E 18067.51547311 .00001801 00000-0 10161-3 0 9997
2 37854 101.7132 080.9024 0164499 012.0218 348.4847 15.05155444346234
HRBE
1 37855U 11061F 18067.50733678 .00001919 00000-0 10581-3 0 9996
2 37855 101.7260 078.5137 0177509 020.1624 340.6485 15.04127468346047
ALMASAT-1
1 38078U 12006B 18067.56450497 .00018015 38858-5 16793-3 0 9998
2 38078 069.4353 134.0194 0264336 257.8446 168.5115 15.35170366325183
HORYU-2
1 38340U 12025D 18067.64386360 .00000175 00000-0 33833-4 0 9993
2 38340 98.3735 85.8780 0011945 165.0398 195.1166 14.75508397312287
RS-40
1 38735U 12041C 18067.70917604 .00000000 00000-0 -69850-4 0 9993
2 38735 82.4788 159.2703 0017578 169.8114 190.3325 12.42576671254555
BEESAT-3
1 39134U 13015E 18067.53690924 .00001189 00000-0 66133-4 0 9992
2 39134 064.8626 092.4236 0022146 224.1992 135.7367 15.18867645269239
BEESAT-2
1 39136U 13015G 18067.52798659 .00000583 00000-0 40298-4 0 9998
2 39136 064.8687 107.0365 0028643 246.5961 113.2152 15.15918078268940
ZACUBE-1
1 39417U 13066B 18067.57186604 .00000196 00000-0 31037-4 0 9993
2 39417 097.5990 101.5253 0060496 124.0179 236.6801 14.80885519231901
TRITON-1
1 39427U 13066M 18067.53370427 .00000123 00000-0 27884-4 0 9993
2 39427 097.6389 070.1509 0113174 221.3128 137.9476 14.67618646229624
GOMX-1
1 39430U 13066Q 18067.90444735 .00000176 00000-0 41423-4 0 9995
2 39430 97.6884 52.0586 0150254 287.3325 71.1488 14.59034677228520
LO-74
1 39440U 13066AA 18067.64899803 .00000160 00000-0 29256-4 0 9990
2 39440 97.6084 88.8267 0081138 161.0614 199.3645 14.75621066231095
AO-73
1 39444U 13066AE 18067.55270801 .00000244 00000-0 36455-4 0 9997
2 39444 097.6001 102.9044 0059699 119.9710 240.7448 14.81651946230161
SPROUT
1 39770U 14029E 18067.84482778 .00000765 00000-0 92173-4 0 9996
2 39770 97.8722 169.7712 0009357 169.3932 190.7496 14.86700462205453
DUCHIFAT-1
1 40021U 14033M 18067.34359293 .00000296 00000-0 36404-4 0 9996
2 40021 97.9173 345.8817 0013658 145.4375 214.7733 14.90215351201936
NANOSATCBR1
1 40024U 14033Q 18067.73824303 .00000260 00000-0 33232-4 0 9998
2 40024 97.9115 344.7141 0012952 145.8503 214.3550 14.89491895201925
EO-79
1 40025U 14033R 18067.59446168 .00000234 00000-0 31139-4 0 9997
2 40025 097.9081 343.1883 0013103 150.3556 209.8406 14.88648615201317
DTUSAT-2
1 40030U 14033W 18067.73481845 .00000220 00000-0 29834-4 0 9994
2 40030 97.9034 342.1494 0012667 144.6624 215.5434 14.88261663201795
EO-80
1 40032U 14033Y 18067.58677674 .00000232 00000-0 31204-4 0 9993
2 40032 097.9041 342.0056 0012593 145.6609 214.5423 14.88197382201243
ANTELSAT
1 40034U 14033AA 18067.72958506 .00000185 00000-0 35072-4 0 9991
2 40034 97.8260 307.9529 0059266 160.3304 200.0210 14.73871916199893
VELOX-1
1 40057U 14034E 18067.80135947 .00000260 00000-0 44208-4 0 9997
2 40057 98.1940 177.1776 0009574 292.5873 67.4331 14.77356796198823
DAURIA DX 1
1 40071U 14037C 18067.82846592 .00000088 00000-0 18772-4 0 9998
2 40071 98.3595 194.8110 0007132 286.9024 73.1408 14.81128110198144
UKUBE-1
1 40074U 14037F 18067.40140596 .00000240 00000-0 36110-4 0 9992
2 40074 98.3709 199.6683 0003338 286.2841 73.8030 14.83730760198359
HODOYOSHI-1
1 40299U 14070B 18067.79135800 .00000545 00000-0 26331-4 0 9994
2 40299 97.3822 151.3269 0011436 240.7052 214.3659 15.22756077185207
CHUBUSAT-1
1 40300U 14070C 18067.73212571 .00000675 00000-0 33055-4 0 9997
2 40300 97.3709 147.5505 0018504 254.0242 204.8135 15.21413901185002
QSAT-EOS
1 40301U 14070D 18067.50085944 .00001387 00000-0 59078-4 0 9999
2 40301 097.3651 148.2242 0025114 246.4714 169.6501 15.24391117185089
FIREBIRD FU3
1 40377U 15003B 18067.59972061 .00001557 00000-0 68117-4 0 9996
2 40377 099.0995 309.3747 0131872 204.7163 154.7711 15.16790974171062
FIREBIRD FU4
1 40378U 15003C 18067.58923692 .00001585 00000-0 69164-4 0 9996
2 40378 099.0997 309.4150 0132094 204.6438 154.8442 15.16801981171068
GRIFEX
1 40379U 15003D 18067.50135238 .00001182 00000-0 56271-4 0 9998
2 40379 099.1034 305.9326 0138612 216.1493 143.0304 15.14020672170850
NO-84
1 40654U 15025D 18067.42414848 .00008929 00000-0 15248-3 0 02386
2 40654 054.9938 130.9120 0161915 212.2747 146.8183 15.38928102040322
NO-83
1 40655U 15025E 18067.35964013 .00014592 00000-0 17600-3 0 02740
2 40655 054.9779 085.1543 0115402 239.5576 119.3945 15.53383828040595
DEORBITSAIL
1 40719U 15032E 18067.40512455 .00000371 00000-0 60738-4 0 9999
2 40719 097.9562 322.5023 0017056 017.2019 342.9766 14.76348297143306
NUDT-PHONESAT
1 40900U 15049B 18067.52487309 .00001959 00000-0 91634-4 0 9993
2 40900 097.4435 076.9596 0014358 028.4656 331.7360 15.20867741136612
XW-2A
1 40903U 15049E 18067.87142904 .00001744 00000-0 45590-4 0 9995
2 40903 97.3966 101.6867 0015378 38.0360 322.1968 15.40080125138369
XW-2C
1 40906U 15049H 18067.80070784 .00000623 00000-0 36795-4 0 9999
2 40906 97.4602 73.1432 0015725 23.9372 336.2588 15.15043975136291
XW-2D
1 40907U 15049J 18067.82885798 .00000664 00000-0 38806-4 0 9991
2 40907 97.4574 72.8807 0015028 22.1091 338.0786 15.15184402136300
LILACSAT-2
1 40908U 15049K 18067.51794156 .00000315 00000-0 21244-4 0 9996
2 40908 097.4684 072.0617 0016681 023.1765 337.0215 15.13423442136145
XW-2F
1 40910U 15049M 18067.78812819 .00001021 00000-0 56039-4 0 9990
2 40910 97.4581 73.9751 0015662 18.4163 341.7634 15.16304549136247
XW-2B
1 40911U 15049N 18067.57860522 .00000664 00000-0 38881-4 0 9999
2 40911 097.4612 073.1337 0014966 023.4835 336.7078 15.15132100136161
DCBB
1 40912U 15049P 18067.80859088 .00001159 00000-0 59334-4 0 9997
2 40912 97.4517 76.5672 0015865 7.8903 116.3305 15.18495492136430
TW-1C
1 40926U 15051B 18067.90201709 .00006192 00000-0 12288-3 0 9995
2 40926 97.1956 110.7579 0008467 289.1860 196.6109 15.47337613137798
TW-1A
1 40928U 15051D 18067.38186524 .00002729 00000-0 74811-4 0 9999
2 40928 097.1961 103.3337 0011529 334.9197 082.1299 15.38085265137287
IO-86
1 40931U 15052B 18066.67357938 .00000909 00000-0 37495-4 0 9999
2 40931 006.0030 153.9898 0014086 011.8182 348.2209 14.76569434131979
LQSat
1 40958U 15057A 18067.56339191 .00000051 00000-0 15765-4 0 9997
2 40958 097.9489 142.8761 0017027 302.4112 057.5457 14.73019441130048
AO-85
1 40967U 15058D 18067.42747974 .00000150 00000-0 34834-4 0 02626
2 40967 064.7775 137.1358 0196637 345.4228 014.1247 14.75649203038788
ATHENOXAT-1
1 41168U 15077C 18067.53791097 .00001897 00000-0 67718-4 0 9991
2 41168 014.9908 036.8241 0011964 083.8493 031.1283 15.12511133123112
ChubuSat-2
1 41338U 16012B 18067.49603992 .00000374 00000-0 22579-4 0 9996
2 41338 031.0023 233.3624 0013763 156.8548 203.2709 14.99930668112709
ChubuSat-3
1 41339U 16012C 18067.45594378 .00000305 00000-0 17067-4 0 9990
2 41339 031.0108 232.3607 0013536 163.3018 196.8070 15.00121640112687
Horyu-4
1 41340U 16012D 18067.76849415 .00000556 00000-0 35819-4 0 9994
2 41340 31.0043 225.9051 0014025 178.1255 181.9434 15.00903251112796
OUFTI-1
1 41458U 16025C 18067.67814944 .00001299 00000-0 71342-4 0 9993
2 41458 98.1498 125.1168 0172686 124.4386 237.3265 15.04322362102329
e-st@r-II
1 41459U 16025D 18067.40179037 .00000867 00000-0 49319-4 0 9991
2 41459 098.1490 124.7029 0173574 125.8407 235.9084 15.04074738102277
AAUSAT4
1 41460U 16025E 18067.67156926 .00001628 00000-0 87944-4 0 9996
2 41460 98.1430 125.3410 0165174 121.7000 240.0423 15.05379780102365
LO-87
1 41557U 16033B 18067.26409817 .00001237 00000-0 47852-4 0 9997
2 41557 97.4410 151.6586 0014767 149.0689 211.1423 15.28050409 98749
